Stations météo

Publicité
Le Talut, France (7207): Température de l'air & dewpoint: 14.07.2018 01:00:00 - 20.07.2018 01:00:00 (CEST)Le Talut, France (7207): Vitesse du vent & gusts: 14.07.2018 01:00:00 - 20.07.2018 01:00:00 (CEST)Le Talut, France (7207): Direction du vent: 14.07.2018 01:00:00 - 20.07.2018 01:00:00 (CEST)Le Talut, France (7207): reduced air pressure: 14.07.2018 01:00:00 - 20.07.2018 01:00:00 (CEST)Le Talut, France (7207): visibility: 14.07.2018 01:00:00 - 20.07.2018 01:00:00 (CEST)Le Talut, France (7207): Quantités de précipitations: 14.07.2018 01:00:00 - 20.07.2018 01:00:00 (CEST)
Date & Time tt [°C] td [°C] ff [km/h] ff [knt] fx [km/h] fx [knt] dd ppp [hPa] vv [km] rr [mm]
20.07.2018 01:00:00 - - - - - - - - - -
20.07.2018 00:00:00 17,8 12,9 16 8 26 14 N 1018,3 - 0,0
19.07.2018 23:00:00 17,4 12,3 16 8 18 10 N 1017,7 - 0,0
19.07.2018 22:00:00 19,1 13,7 14 8 21 12 NNE 1017,4 - 0,0
19.07.2018 21:00:00 21,2 14,4 13 7 22 12 N 1016,8 - 0,0
19.07.2018 20:00:00 21,7 16,2 13 7 23 12 NNW 1016,8 20 0,0
19.07.2018 19:00:00 21,3 16,0 13 7 26 14 NW 1017,0 - 0,0
19.07.2018 18:00:00 21,2 16,2 10 5 19 10 WNW 1017,1 - 0,0
19.07.2018 17:00:00 21,3 14,9 15 8 29 16 NW 1017,6 20 0,0
19.07.2018 16:00:00 21,0 14,4 11 6 25 14 NW 1017,3 - 0,0
19.07.2018 15:00:00 19,9 14,9 8 5 17 9 WSW 1018,1 - 0,0
19.07.2018 14:00:00 20,6 14,0 12 7 25 13 W 1018,0 20 0,0
19.07.2018 13:00:00 20,7 12,9 14 8 25 13 NNW 1017,8 - 0,0
19.07.2018 12:00:00 21,6 12,4 13 7 29 15 N 1018,0 - 0,0
19.07.2018 11:00:00 20,4 13,1 20 11 33 18 NNE 1017,9 20 0,0
19.07.2018 10:00:00 19,5 13,0 23 12 35 19 NNE 1017,9 - 0,0
19.07.2018 09:00:00 17,9 12,8 19 11 31 17 NNE 1017,6 - 0,0
19.07.2018 08:00:00 16,4 13,1 12 6 21 11 N 1017,5 20 0,0
19.07.2018 07:00:00 15,3 12,2 4 2 12 6 N 1017,4 - 0,0
19.07.2018 06:00:00 16,2 12,7 4 2 25 13 NW 1017,2 - 0,0
19.07.2018 05:00:00 16,2 12,4 18 10 32 17 NNE 1016,9 - 0,0
19.07.2018 04:00:00 16,0 12,2 20 11 32 18 NNE 1017,1 - 0,0
19.07.2018 03:00:00 16,8 11,7 22 12 38 20 NNE 1017,5 - 0,0
19.07.2018 02:00:00 17,4 12,1 23 12 36 19 NNE 1017,9 - 0,0
19.07.2018 01:00:00 18,1 13,0 24 13 44 24 NE 1018,0 - 0,0
19.07.2018 00:00:00 18,9 13,7 24 13 37 20 NNE 1017,8 - 0,0
18.07.2018 23:00:00 19,0 15,3 14 8 19 10 N 1017,5 - 0,0
18.07.2018 22:00:00 20,1 15,7 9 5 21 11 NW 1017,1 - 0,0
18.07.2018 21:00:00 20,5 15,9 12 7 31 17 NW 1017,1 - 0,0
18.07.2018 20:00:00 21,3 15,2 19 11 35 19 NW 1017,0 20 0,0
18.07.2018 19:00:00 21,9 14,0 14 8 29 15 WNW 1017,4 - 0,0
18.07.2018 18:00:00 22,7 13,7 14 8 29 15 WNW 1017,5 - 0,0
18.07.2018 17:00:00 22,4 13,2 17 9 28 15 W 1017,8 - 0,0
18.07.2018 16:00:00 22,4 12,1 17 9 27 15 W 1017,8 - 0,0
18.07.2018 15:00:00 22,1 12,1 18 10 31 17 W 1017,8 - 0,0
18.07.2018 14:00:00 21,6 12,2 18 10 30 16 W 1017,9 20 0,0
18.07.2018 13:00:00 21,2 12,3 14 8 29 16 WNW 1018,3 - 0,0
18.07.2018 12:00:00 20,9 11,0 14 8 29 16 N 1018,5 - 0,0
18.07.2018 11:00:00 20,1 11,0 17 9 28 15 N 1018,6 20 0,0
18.07.2018 10:00:00 19,2 11,0 16 9 27 14 N 1018,8 - 0,0
18.07.2018 09:00:00 18,6 11,7 13 7 21 11 N 1018,8 - 0,0
18.07.2018 08:00:00 16,0 12,4 13 7 18 10 N 1018,8 - 0,0
18.07.2018 07:00:00 14,0 11,3 14 7 18 10 N 1018,8 - 0,0
18.07.2018 06:00:00 13,9 11,1 14 8 19 11 N 1018,7 - 0,0
18.07.2018 05:00:00 14,1 11,6 15 8 20 11 N 1018,7 - 0,0
18.07.2018 04:00:00 14,2 11,4 16 8 21 12 N 1019,1 - 0,0
18.07.2018 03:00:00 14,4 11,2 16 9 22 12 N 1019,3 - 0,0
18.07.2018 02:00:00 15,6 12,2 16 8 21 11 N 1019,4 - 0,0
18.07.2018 01:00:00 16,9 11,6 11 6 23 13 NNW 1019,6 - 0,0
18.07.2018 00:00:00 18,3 11,6 11 6 25 14 WNW 1019,8 - 0,0
17.07.2018 23:00:00 18,7 11,5 13 7 28 15 W 1019,7 - 0,0
17.07.2018 22:00:00 19,1 11,6 16 9 31 17 W 1019,4 - 0,0
17.07.2018 21:00:00 19,9 12,2 16 9 28 15 W 1019,2 - 0,0
17.07.2018 20:00:00 21,0 12,4 17 9 27 15 W 1019,3 - 0,0
17.07.2018 19:00:00 21,9 11,3 15 8 24 13 W 1019,4 - 0,0
17.07.2018 18:00:00 22,6 12,5 10 6 21 12 W 1019,6 - 0,0
17.07.2018 17:00:00 22,5 11,9 12 6 25 13 W 1019,9 20 0,0
17.07.2018 16:00:00 22,2 11,0 11 6 22 12 W 1020,1 - 0,0
17.07.2018 15:00:00 22,4 13,2 13 7 23 12 WNW 1020,1 - 0,0
17.07.2018 14:00:00 19,2 14,7 4 2 9 5 SW 1020,6 20 0,0
17.07.2018 13:00:00 18,7 15,9 5 3 9 5 SE 1020,7 - 0,2
17.07.2018 12:00:00 17,2 14,3 7 4 20 11 SE 1020,7 - 0,0
17.07.2018 11:00:00 18,0 14,3 15 8 25 14 S 1020,2 20 0,0
17.07.2018 10:00:00 18,9 13,3 12 6 18 10 NNW 1020,0 - 0,0
17.07.2018 09:00:00 18,6 13,9 5 3 10 5 N 1019,9 - 0,0
17.07.2018 08:00:00 17,5 13,8 5 3 15 8 N 1019,7 20 0,0
17.07.2018 07:00:00 17,1 13,4 9 5 16 9 N 1019,4 - 0,0
17.07.2018 06:00:00 17,3 14,0 12 6 17 9 N 1019,1 - 0,0
17.07.2018 05:00:00 16,8 13,5 11 6 19 11 N 1019,0 - 0,0
17.07.2018 04:00:00 16,9 13,8 12 6 25 13 N 1019,0 - 0,0
17.07.2018 03:00:00 17,8 13,7 16 9 34 18 NNW 1019,2 - 0,0
17.07.2018 02:00:00 17,9 14,2 23 12 40 22 NW 1019,3 - 0,0
17.07.2018 01:00:00 18,3 14,6 22 12 39 21 WNW 1019,0 - 0,0
17.07.2018 00:00:00 18,6 15,1 22 12 39 21 WNW 1018,8 - 0,0
16.07.2018 23:00:00 19,2 16,2 18 10 37 20 W 1018,6 - 0,0
16.07.2018 22:00:00 20,0 17,2 24 13 35 19 W 1017,6 - 0,0
16.07.2018 21:00:00 21,0 16,6 22 12 37 20 W 1017,5 - 0,0
16.07.2018 20:00:00 21,1 16,5 22 12 42 23 W 1017,3 25 0,0
16.07.2018 19:00:00 22,1 16,6 24 13 42 23 W 1017,1 - 0,0
16.07.2018 18:00:00 22,3 16,6 23 12 48 26 W 1017,1 - 0,0
16.07.2018 17:00:00 22,3 16,6 29 16 52 28 W 1017,0 20 0,0
16.07.2018 16:00:00 22,4 16,4 26 14 45 24 W 1016,8 - 0,0
16.07.2018 15:00:00 21,8 16,1 24 13 39 21 W 1016,9 - 0,0
16.07.2018 14:00:00 21,6 15,9 18 10 35 19 WNW 1016,9 20 0,0
16.07.2018 13:00:00 21,7 16,0 16 9 30 16 WNW 1016,7 - 0,0
16.07.2018 12:00:00 22,5 16,3 17 9 34 18 W 1016,7 - 0,0
16.07.2018 11:00:00 21,4 15,9 19 11 33 18 NW 1016,4 - 0,0
16.07.2018 10:00:00 21,1 13,5 23 12 34 18 NW 1016,1 - 0,0
16.07.2018 09:00:00 20,6 14,9 22 12 31 17 NW 1015,5 - 0,0
16.07.2018 08:00:00 19,7 15,6 13 7 22 12 NNW 1015,0 20 0,0
16.07.2018 07:00:00 18,5 15,4 14 8 21 11 NNW 1015,4 - 0,0
16.07.2018 06:00:00 17,6 12,7 13 7 17 9 N 1015,5 - 0,0
16.07.2018 05:00:00 17,8 13,3 14 8 19 10 NNW 1015,4 - 0,0
16.07.2018 04:00:00 18,0 12,7 10 6 21 11 NNW 1015,5 - 0,0
16.07.2018 03:00:00 17,6 12,3 16 9 22 12 N 1015,6 - 0,0
16.07.2018 02:00:00 19,2 12,5 13 7 25 14 N 1015,9 - 0,0
16.07.2018 01:00:00 19,9 14,3 18 10 29 16 N 1015,8 - 0,0
16.07.2018 00:00:00 21,1 16,1 21 11 29 16 NNW 1015,7 - 0,0
15.07.2018 23:00:00 20,8 16,2 15 8 29 15 NW 1015,8 - 0,0
15.07.2018 22:00:00 21,3 16,9 16 9 31 17 NW 1015,3 - 0,0
15.07.2018 21:00:00 22,7 17,6 16 9 30 16 NW 1015,2 - 0,0
15.07.2018 20:00:00 23,6 18,0 13 7 26 14 WNW 1015,0 25 0,0
15.07.2018 19:00:00 24,8 16,8 16 8 28 15 NW 1015,2 - 0,0
15.07.2018 18:00:00 25,1 17,6 13 7 22 12 WNW 1015,5 - 0,0
15.07.2018 17:00:00 26,3 16,2 12 6 25 14 WNW 1015,7 25 0,0
15.07.2018 16:00:00 26,9 14,6 14 8 27 15 NW 1015,7 - 0,0
15.07.2018 15:00:00 24,9 16,6 11 6 19 11 W 1016,0 - 0,0
15.07.2018 14:00:00 23,7 16,0 8 4 14 7 WSW 1016,3 - 0,0
15.07.2018 13:00:00 25,3 15,6 9 5 28 15 ESE 1016,5 - 0,0
15.07.2018 12:00:00 25,9 13,4 18 10 28 15 NE 1016,5 - 0,0
15.07.2018 11:00:00 24,3 12,6 19 10 35 19 NE 1016,8 25 0,0
15.07.2018 10:00:00 21,8 13,2 22 12 35 19 NE 1016,8 - 0,0
15.07.2018 09:00:00 20,2 13,4 25 13 36 19 NE 1016,6 - 0,0
15.07.2018 08:00:00 18,3 13,6 24 13 32 18 NE 1016,6 25 0,0
15.07.2018 07:00:00 16,9 12,8 27 15 35 19 NNE 1016,5 - 0,0
15.07.2018 06:00:00 16,9 12,6 26 14 37 20 NNE 1016,5 - 0,0
15.07.2018 05:00:00 17,3 12,8 24 13 35 19 NE 1016,7 - 0,0
15.07.2018 04:00:00 17,5 12,4 26 14 36 19 NE 1016,8 - 0,0
15.07.2018 03:00:00 17,7 11,9 27 15 39 21 NNE 1016,9 - 0,0
15.07.2018 02:00:00 18,3 12,3 28 15 40 22 NNE 1017,4 - 0,0
15.07.2018 01:00:00 19,3 12,3 28 15 39 21 NNE 1017,7 - 0,0
15.07.2018 00:00:00 20,0 12,0 24 13 35 19 NNE 1017,7 - 0,0
14.07.2018 23:00:00 20,5 14,4 15 8 27 15 NNE 1017,8 - 0,0
14.07.2018 22:00:00 21,5 15,1 14 7 24 13 N 1017,4 - 0,0
14.07.2018 21:00:00 23,7 16,0 13 7 22 12 NNW 1017,4 - 0,0
14.07.2018 20:00:00 24,3 16,0 17 9 24 13 NW 1017,5 25 0,0
14.07.2018 19:00:00 24,6 16,8 15 8 23 13 NW 1017,8 - 0,0
14.07.2018 18:00:00 24,8 18,5 13 7 23 12 WNW 1018,2 - 0,0
14.07.2018 17:00:00 25,4 17,6 12 6 19 10 W 1018,4 25 0,0
14.07.2018 16:00:00 26,1 15,2 9 5 16 9 W 1018,8 - 0,0
14.07.2018 15:00:00 26,3 16,0 7 4 18 10 SW 1019,1 - 0,0
14.07.2018 14:00:00 27,0 15,7 7 4 22 12 NNE 1019,3 25 0,0
14.07.2018 13:00:00 25,3 14,4 16 9 32 17 ENE 1019,6 - 0,0
14.07.2018 12:00:00 25,0 14,8 17 9 32 17 ENE 1019,7 - 0,0
14.07.2018 11:00:00 23,2 14,2 21 12 34 18 NE 1019,9 25 0,0
14.07.2018 10:00:00 21,5 13,4 24 13 36 20 NE 1019,9 - 0,0
14.07.2018 09:00:00 19,3 13,5 26 14 38 21 NE 1019,9 - 0,0
14.07.2018 08:00:00 17,9 14,0 27 14 37 20 NNE 1019,5 - 0,0
14.07.2018 07:00:00 16,5 13,8 29 15 37 20 NNE 1019,5 - 0,0
14.07.2018 06:00:00 16,7 13,4 29 16 37 20 NNE 1019,6 - -
14.07.2018 05:00:00 16,8 13,3 27 15 40 22 NNE 1019,5 - 0,0
14.07.2018 04:00:00 16,9 13,4 28 15 42 23 NNE 1019,8 - 0,0
14.07.2018 03:00:00 17,4 12,7 29 16 42 23 NNE 1020,2 - 0,0
14.07.2018 02:00:00 18,1 12,3 29 16 44 24 NNE 1020,5 - 0,0
14.07.2018 01:00:00 19,0 13,4 26 14 39 21 NNE 1020,6 - 0,0

tt = Température de l'air
td = dewpoint
ff = Vitesse du vent
fx = gusts
dd = Direction du vent
ppp = reduced air pressure
vv = visibility
rr = Quantités de précipitations

stations d'obs. à proximité